Precipitable_Water
0.39 0.38 0.37 0.36 0.39 0.40 0.40 0.39 0.39 0.39 0.41 0.40 0.44 0.45 0.44 0.41 0.34 0.22 0.17 0.25 0.29 0.36 0.42 0.35 0.36 0.34 0.36 0.32 0.35 0.37 0.26 0.20 0.26 0.35 0.38 0.41 0.38 0.40 0.47 0.48 0.48 0.48 0.52 0.64 1.18
0.40 0.39 0.38 0.36 0.37 0.38 0.37 0.36 0.36 0.39 0.39 0.39 0.40 0.44 0.44 0.42 0.36 0.23 0.24 0.29 0.33 0.39 0.33 0.28 0.27 0.28 0.26 0.28 0.28 0.27 0.25 0.26 0.29 0.32 0.35 0.40 0.45 0.43 0.45 0.45 0.41 0.46 0.54 0.61 0.64
0.42 0.39 0.38 0.35 0.35 0.36 0.35 0.34 0.35 0.39 0.39 0.39 0.41 0.42 0.40 0.43 0.27 0.21 0.28 0.30 0.34 0.42 0.37 0.34 0.33 0.29 0.24 0.26 0.26 0.30 0.24 0.28 0.29 0.30 0.32 0.34 0.38 0.43 0.44 0.44 0.51 0.51 0.54 0.61 0.62
0.40 0.37 0.35 0.34 0.34 0.35 0.32 0.30 0.31 0.33 0.35 0.37 0.40 0.39 0.41 0.37 0.19 0.22 0.25 0.27 0.33 0.34 0.34 0.30 0.31 0.26 0.25 0.24 0.27 0.26 0.30 0.27 0.28 0.30 0.31 0.32 0.41 0.40 0.44 0.48 0.55 0.58 0.61 0.59 0.59
0.40 0.39 0.37 0.34 0.32 0.33 0.31 0.31 0.31 0.32 0.31 0.34 0.38 0.40 0.31 0.24 0.18 0.23 0.23 0.23 0.26 0.26 0.27 0.30 0.28 0.28 0.26 0.28 0.31 0.30 0.27 0.28 0.27 0.33 0.37 0.38 0.39 0.41 0.42 0.48 0.50 0.49 0.49 0.53 0.54
0.38 0.39 0.37 0.34 0.31 0.31 0.31 0.31 0.30 0.31 0.31 0.31 0.35 0.40 0.31 0.19 0.26 0.26 0.21 0.21 0.24 0.25 0.25 0.28 0.29 0.32 0.29 0.29 0.33 0.33 0.31 0.29 0.29 0.31 0.33 0.30 0.37 0.38 0.45 0.52 0.45 0.43 0.42 0.44 0.48
0.37 0.36 0.35 0.34 0.31 0.31 0.30 0.29 0.30 0.30 0.30 0.32 0.33 0.33 0.23 0.17 0.24 0.26 0.22 0.20 0.23 0.26 0.24 0.27 0.31 0.29 0.31 0.30 0.33 0.31 0.30 0.29 0.30 0.29 0.26 0.29 0.29 0.35 0.45 0.48 0.43 0.45 0.45 0.44 0.43
0.38 0.36 0.34 0.33 0.31 0.30 0.28 0.26 0.27 0.28 0.30 0.29 0.33 0.32 0.16 0.27 0.25 0.20 0.22 0.20 0.24 0.25 0.30 0.33 0.33 0.30 0.28 0.32 0.32 0.28 0.29 0.28 0.32 0.33 0.37 0.34 0.31 0.40 0.46 0.41 0.37 0.40 0.43 0.44 0.45
0.39 0.36 0.33 0.33 0.31 0.29 0.26 0.25 0.25 0.25 0.28 0.29 0.23 0.18 0.13 0.22 0.16 0.20 0.23 0.20 0.24 0.27 0.31 0.36 0.32 0.27 0.28 0.24 0.24 0.25 0.23 0.26 0.30 0.37 0.33 0.33 0.31 0.39 0.42 0.37 0.34 0.37 0.39 0.40 0.41
0.41 0.37 0.32 0.32 0.31 0.29 0.27 0.27 0.25 0.24 0.20 0.26 0.21 0.15 0.18 0.13 0.16 0.22 0.23 0.25 0.26 0.30 0.28 0.24 0.24 0.20 0.24 0.21 0.16 0.19 0.20 0.22 0.22 0.29 0.29 0.27 0.28 0.34 0.37 0.35 0.33 0.34 0.34 0.35 0.36
0.42 0.39 0.34 0.32 0.30 0.29 0.32 0.27 0.15 0.12 0.18 0.13 0.17 0.15 0.16 0.17 0.17 0.19 0.22 0.22 0.23 0.22 0.19 0.20 0.15 0.13 0.16 0.19 0.20 0.20 0.19 0.18 0.22 0.28 0.24 0.24 0.23 0.27 0.31 0.31 0.29 0.29 0.29 0.30 0.33
0.43 0.40 0.36 0.33 0.28 0.32 0.43 0.28 0.30 0.38 0.17 0.20 0.22 0.21 0.20 0.17 0.11 0.16 0.21 0.18 0.18 0.14 0.16 0.14 0.13 0.21 0.22 0.21 0.17 0.16 0.14 0.15 0.21 0.26 0.22 0.21 0.20 0.27 0.29 0.30 0.31 0.30 0.30 0.31 0.33
0.44 0.41 0.36 0.33 0.31 0.36 0.39 0.38 0.51 0.46 0.23 0.19 0.21 0.17 0.16 0.15 0.12 0.13 0.17 0.17 0.16 0.13 0.14 0.11 0.14 0.19 0.18 0.18 0.16 0.18 0.16 0.16 0.16 0.25 0.25 0.20 0.17 0.23 0.29 0.32 0.33 0.36 0.36 0.36 0.36
0.45 0.42 0.38 0.32 0.32 0.37 0.36 0.49 0.49 0.44 0.11 0.11 0.17 0.14 0.14 0.14 0.09 0.13 0.18 0.17 0.15 0.14 0.15 0.16 0.17 0.15 0.14 0.16 0.18 0.14 0.20 0.16 0.18 0.14 0.09 0.20 0.11 0.22 0.26 0.24 0.29 0.32 0.36 0.37 0.39
0.47 0.44 0.40 0.39 0.38 0.36 0.39 0.49 0.46 0.33 0.04 0.15 0.15 0.20 0.17 0.11 0.12 0.10 0.20 0.17 0.13 0.14 0.14 0.14 0.16 0.13 0.11 0.13 0.18 0.15 0.18 0.18 0.18 0.16 0.16 0.19 0.16 0.20 0.25 0.20 0.23 0.29 0.34 0.36 0.38
0.48 0.46 0.42 0.34 0.46 0.45 0.46 0.50 0.34 0.09 0.05 0.15 0.17 0.13 0.12 0.13 0.13 0.12 0.16 0.19 0.21 0.16 0.15 0.14 0.19 0.16 0.15 0.16 0.19 0.18 0.16 0.18 0.18 0.17 0.11 0.17 0.16 0.15 0.19 0.22 0.24 0.30 0.33 0.35 0.36
0.52 0.47 0.42 0.39 0.39 0.51 0.51 0.30 0.10 0.06 0.13 0.13 0.14 0.15 0.11 0.11 0.11 0.10 0.11 0.12 0.11 0.10 0.10 0.13 0.11 0.14 0.15 0.13 0.16 0.14 0.13 0.10 0.10 0.11 0.10 0.21 0.17 0.17 0.24 0.28 0.28 0.28 0.32 0.34 0.36
0.54 0.49 0.43 0.37 0.48 0.53 0.47 0.18 0.06 0.07 0.13 0.18 0.16 0.15 0.12 0.11 0.11 0.10 0.10 0.09 0.13 0.12 0.11 0.08 0.07 0.10 0.15 0.14 0.11 0.11 0.15 0.11 0.06 0.08 0.12 0.21 0.13 0.17 0.28 0.31 0.33 0.34 0.33 0.33 0.34
0.57 0.46 0.38 0.33 0.46 0.53 0.34 0.12 0.08 0.10 0.19 0.15 0.16 0.13 0.11 0.12 0.10 0.11 0.08 0.09 0.12 0.14 0.09 0.09 0.09 0.15 0.13 0.15 0.14 0.11 0.11 0.20 0.13 0.17 0.13 0.16 0.19 0.25 0.30 0.27 0.28 0.26 0.27 0.27 0.30
0.50 0.41 0.33 0.38 0.45 0.50 0.28 0.13 0.13 0.24 0.28 0.18 0.12 0.13 0.10 0.10 0.10 0.10 0.09 0.12 0.12 0.16 0.19 0.16 0.10 0.16 0.16 0.14 0.16 0.15 0.17 0.09 0.11 0.05 0.05 0.10 0.12 0.11 0.18 0.18 0.20 0.19 0.21 0.24 0.28
0.50 0.33 0.38 0.42 0.49 0.36 0.20 0.17 0.19 0.27 0.31 0.20 0.14 0.13 0.12 0.11 0.12 0.10 0.11 0.14 0.15 0.15 0.21 0.19 0.14 0.14 0.15 0.10 0.09 0.13 0.10 0.15 0.15 0.11 0.05 0.04 0.06 0.18 0.17 0.17 0.15 0.18 0.21 0.24 0.25
0.44 0.28 0.48 0.47 0.25 0.31 0.23 0.21 0.26 0.22 0.31 0.26 0.20 0.17 0.14 0.14 0.13 0.12 0.11 0.14 0.19 0.19 0.16 0.20 0.15 0.10 0.12 0.15 0.17 0.16 0.12 0.11 0.06 0.08 0.11 0.09 0.04 0.21 0.20 0.16 0.19 0.19 0.23 0.25 0.26
0.38 0.35 0.56 0.44 0.16 0.19 0.25 0.24 0.25 0.23 0.26 0.25 0.19 0.19 0.20 0.15 0.13 0.15 0.15 0.20 0.21 0.20 0.18 0.21 0.14 0.09 0.10 0.13 0.16 0.13 0.15 0.13 0.13 0.14 0.09 0.05 0.05 0.22 0.21 0.20 0.22 0.22 0.23 0.22 0.23
0.41 0.27 0.36 0.45 0.34 0.23 0.18 0.18 0.20 0.25 0.23 0.30 0.25 0.22 0.19 0.18 0.19 0.17 0.17 0.20 0.22 0.22 0.20 0.21 0.14 0.10 0.06 0.09 0.12 0.10 0.12 0.13 0.10 0.08 0.08 0.08 0.09 0.18 0.19 0.19 0.22 0.24 0.23 0.24 0.22
0.43 0.32 0.32 0.25 0.33 0.30 0.27 0.18 0.16 0.17 0.22 0.25 0.25 0.22 0.19 0.18 0.19 0.19 0.22 0.22 0.23 0.25 0.20 0.16 0.11 0.14 0.14 0.14 0.14 0.14 0.12 0.13 0.10 0.09 0.07 0.09 0.11 0.17 0.19 0.20 0.23 0.23 0.24 0.24 0.22
0.36 0.37 0.38 0.32 0.31 0.35 0.33 0.22 0.17 0.19 0.19 0.16 0.20 0.24 0.22 0.20 0.21 0.19 0.21 0.22 0.19 0.23 0.21 0.19 0.11 0.14 0.13 0.15 0.14 0.12 0.15 0.14 0.13 0.12 0.13 0.14 0.13 0.22 0.24 0.24 0.22 0.23 0.24 0.24 0.22
0.43 0.49 0.43 0.34 0.31 0.26 0.29 0.29 0.22 0.23 0.23 0.22 0.20 0.20 0.22 0.22 0.26 0.30 0.30 0.28 0.26 0.23 0.21 0.20 0.14 0.12 0.10 0.16 0.14 0.10 0.12 0.13 0.14 0.15 0.14 0.10 0.13 0.21 0.22 0.21 0.21 0.22 0.24 0.24 0.23
Wind_Speed
6 6 6 6 6 6 7 7 8 9 9 9 9 10 11 12 12 12 14 17 18 20 20 21 21 20 21 20 20 19 16 17 16 15 13 10 11 10 8 9 4 4 2 5 8
6 6 5 6 6 6 7 7 7 7 7 7 7 8 10 10 11 11 13 15 16 18 19 19 20 19 20 21 20 18 17 17 16 16 15 9 10 12 10 5 5 2 2 2 3
6 6 6 6 7 7 7 7 7 6 6 6 6 6 8 8 8 9 11 13 14 16 18 19 19 20 20 20 20 19 19 18 15 17 16 14 7 10 14 8 7 7 7 6 5
7 7 7 7 7 8 8 8 7 7 7 6 6 7 8 6 7 7 8 11 12 14 17 19 18 19 19 19 19 18 18 18 18 17 16 14 11 6 6 10 9 8 8 8 9
9 9 9 9 9 9 9 9 8 8 7 6 6 7 7 7 8 7 7 8 9 10 15 17 19 19 19 19 19 18 18 16 17 16 15 13 10 10 6 10 11 10 9 10 10
11 10 10 10 10 10 10 10 9 8 6 6 5 5 5 7 7 6 7 7 7 8 11 14 18 19 19 19 20 19 19 17 15 15 14 12 12 14 12 12 11 11 11 12 13
12 12 12 11 11 11 11 10 9 8 7 6 5 5 4 6 6 7 6 6 6 7 9 12 15 18 19 18 19 19 18 16 15 18 16 18 10 13 14 14 12 13 14 15 16
13 13 13 12 12 11 11 10 10 9 8 7 6 5 5 4 4 4 4 5 5 6 8 9 13 16 17 19 17 19 17 17 16 17 16 17 16 14 14 14 13 15 16 17 19
15 14 14 13 12 12 11 11 11 10 10 9 7 5 6 4 3 2 3 4 4 6 7 8 10 13 15 18 16 17 18 17 16 13 16 14 16 14 13 13 13 15 17 18 20
16 15 15 14 13 12 11 11 10 10 10 9 9 5 6 5 4 2 3 5 6 6 7 7 7 10 12 15 18 18 16 13 14 12 8 8 11 13 13 12 14 15 16 18 20
18 17 16 15 14 12 10 9 9 9 11 11 9 9 7 7 6 5 5 5 7 8 8 6 8 8 9 11 14 14 13 12 12 13 8 9 9 11 12 11 12 13 15 16 18
19 18 17 16 15 13 11 10 10 10 11 14 14 11 9 8 7 8 6 7 7 8 7 7 7 7 10 10 13 12 12 11 8 10 9 11 8 9 10 11 11 13 15 16 18
20 19 18 17 16 14 13 11 11 10 11 13 15 14 12 11 10 10 9 8 8 8 7 8 8 8 9 9 11 8 11 11 12 9 7 10 9 9 10 10 12 14 16 17 19
21 20 19 18 17 16 15 13 12 11 9 12 14 15 14 12 11 12 11 10 8 10 9 6 6 8 8 8 9 8 9 9 9 9 9 10 10 11 11 12 13 14 15 17 19
23 21 20 19 19 17 17 15 14 12 8 11 13 14 15 14 13 12 12 10 11 10 8 9 9 7 7 9 8 9 8 7 8 7 6 8 7 10 9 11 12 13 14 16 17
24 23 22 21 21 19 18 17 14 11 13 12 12 15 15 15 15 14 14 12 11 8 6 8 9 8 8 7 7 8 6 4 5 6 6 8 6 9 8 9 11 12 14 15 16
26 25 24 24 22 20 19 18 14 16 13 13 13 15 16 16 16 16 16 15 13 10 9 7 7 7 8 7 7 6 7 5 5 6 8 7 6 9 8 9 9 12 13 14 15
27 26 26 27 26 22 21 19 16 17 18 12 13 13 16 17 17 16 17 16 14 11 11 10 9 10 9 9 9 7 9 7 7 7 7 6 8 8 7 8 10 11 13 13 14
28 27 26 27 27 25 24 22 23 19 18 17 13 14 15 19 17 17 18 18 16 14 10 10 8 9 9 9 7 8 7 7 4 5 4 7 9 9 8 8 9 10 11 11 11
28 27 28 28 28 27 25 27 23 20 17 18 19 16 18 19 17 18 19 18 17 15 12 11 8 10 10 9 7 8 8 5 5 4 7 7 9 8 7 7 7 7 8 9 10
27 26 27 29 29 28 28 28 24 22 22 19 19 19 17 19 18 19 20 15 18 16 14 12 9 11 10 11 11 8 8 5 5 5 5 5 8 7 7 6 5 6 6 7 9
27 25 27 31 28 29 30 28 25 23 23 21 20 19 20 20 18 19 20 17 19 17 16 14 10 10 12 10 12 11 9 8 6 9 6 5 9 7 7 6 5 6 6 7 7
28 27 26 30 29 30 29 29 26 26 23 21 20 20 18 21 19 19 18 17 17 17 18 17 12 9 9 10 11 12 12 9 7 6 8 5 8 7 7 7 6 6 6 5 5
29 26 28 31 30 29 29 29 29 28 28 25 22 21 20 19 19 19 19 18 18 16 17 15 14 13 14 11 11 13 13 12 9 7 7 9 7 9 9 9 7 6 4 4 5
29 29 28 30 33 30 29 27 31 29 30 28 25 25 21 20 20 20 19 19 17 18 16 16 15 15 13 12 12 12 14 15 13 10 8 9 11 10 12 10 9 7 6 5 6
27 28 30 30 30 34 33 31 30 31 30 32 29 25 24 23 23 23 21 21 20 20 18 17 15 14 15 14 12 13 14 16 16 12 13 10 11 11 11 8 9 8 7 6 7
27 27 28 32 31 32 33 34 30 30 29 32 30 29 26 26 25 23 23 23 23 21 20 19 17 15 16 15 13 15 20 19 17 15 14 13 11 9 9 11 12 10 9 8 8
Wind_Direction
315 315 312 309 306 303 301 296 290 284 278 270 258 250 247 255 251 244 238 239 239 239 238 234 226 227 220 219 218 217 216 213 212 206 204 201 193 201 189 179 166 193 219 255 236
311 312 311 309 302 299 300 301 300 292 284 273 260 250 249 258 246 248 243 244 245 239 234 228 225 223 218 218 218 216 216 215 213 202 198 185 195 206 187 191 220 236 269 279 249
299 304 304 305 302 300 299 298 298 294 287 270 256 253 256 256 241 250 248 248 247 239 229 224 220 217 216 215 215 215 213 206 205 201 201 195 166 210 215 220 237 248 262 272 272
290 295 296 296 297 295 296 294 291 288 281 265 260 264 260 242 236 256 261 254 247 236 226 220 215 212 212 210 213 210 203 204 206 206 205 205 184 171 198 220 235 239 253 264 271
281 285 289 291 290 290 289 288 285 282 275 261 264 274 243 244 245 259 268 261 241 231 223 219 212 212 209 210 207 195 200 198 196 193 198 193 200 198 227 240 247 248 260 265 271
276 279 283 286 286 285 284 282 278 273 263 254 266 278 249 245 246 263 265 253 237 227 220 212 212 212 209 207 208 203 195 199 201 199 202 205 223 224 252 251 258 258 260 265 271
273 275 278 281 284 282 279 276 269 261 252 249 258 271 251 232 256 263 253 241 226 222 210 208 208 207 202 199 199 193 190 203 211 216 220 223 242 247 253 252 258 261 265 267 271
271 273 274 277 280 279 276 270 261 250 244 244 254 245 236 239 254 263 234 221 208 206 192 203 204 202 201 194 197 197 208 211 222 234 236 226 236 252 260 258 262 266 268 271 275
269 270 271 273 274 274 271 264 254 241 236 238 232 236 235 249 232 239 198 189 183 171 186 190 184 194 197 196 201 211 210 209 224 242 229 233 234 253 263 265 268 270 271 274 275
266 268 269 268 269 270 267 257 243 234 226 228 229 226 226 215 206 174 153 162 165 163 158 161 172 184 193 197 207 209 207 216 217 228 203 207 229 250 262 269 273 275 277 278 280
264 264 266 264 263 261 257 236 233 236 229 223 219 222 221 219 207 184 161 152 154 156 149 156 150 164 181 193 192 191 195 194 213 212 222 224 236 256 265 273 282 286 285 285 283
261 261 261 260 255 251 235 229 228 237 241 230 228 228 222 210 202 197 182 164 155 152 161 148 150 173 169 169 163 174 177 192 214 220 226 229 239 252 268 272 279 287 290 290 289
258 258 257 254 249 230 229 231 240 240 236 236 223 222 218 208 204 203 191 185 170 166 165 166 173 166 167 171 176 195 196 209 210 213 232 223 252 260 265 277 282 288 291 295 297
256 255 253 251 232 230 227 238 240 235 237 234 219 222 212 207 212 204 197 191 185 172 165 164 190 168 166 177 188 197 202 201 204 221 225 232 253 260 272 280 290 293 294 299 302
253 253 248 240 234 226 233 236 233 225 239 224 214 211 208 207 201 207 200 196 190 192 193 205 184 185 181 197 200 202 202 202 208 211 221 238 253 260 276 288 300 302 300 303 308
250 249 245 236 232 228 233 227 221 225 235 221 211 209 205 210 208 200 199 196 191 184 181 189 198 203 201 197 198 192 194 205 210 222 248 243 243 266 263 279 303 307 307 305 308
247 246 242 235 227 229 227 218 222 218 227 221 215 207 206 207 207 203 199 198 199 195 203 203 210 211 199 193 201 194 191 218 238 245 239 248 270 259 266 284 299 311 312 310 311
245 244 241 234 228 226 220 216 220 226 220 218 208 203 207 205 211 205 201 202 206 202 197 202 216 209 206 200 200 202 203 210 217 228 244 264 260 271 263 285 299 307 313 315 315
243 242 238 231 223 220 217 219 221 222 219 214 209 209 215 211 208 206 206 205 206 204 199 202 220 209 201 204 206 211 220 223 217 261 253 259 274 279 264 285 302 312 320 316 317
240 240 234 227 218 219 220 223 224 222 224 218 212 212 211 207 208 206 206 210 205 208 208 210 206 213 211 207 217 215 205 227 253 229 250 264 270 259 258 277 298 317 330 336 336
236 235 229 220 217 220 223 224 224 226 222 218 220 214 214 207 207 207 208 211 208 207 211 206 210 216 204 217 209 213 220 235 227 239 238 258 267 249 237 258 272 296 323 336 343
231 231 229 216 220 224 224 222 223 224 222 223 221 221 214 208 209 207 208 213 207 206 206 214 210 213 217 232 219 218 218 218 229 252 256 251 273 245 236 246 257 281 310 326 337
230 230 226 219 223 225 227 226 224 222 222 223 221 220 219 211 211 213 210 218 208 210 209 212 222 215 233 240 231 225 223 223 228 247 244 240 268 241 241 249 261 279 297 315 339
226 228 226 223 225 222 224 226 223 223 224 224 222 222 221 214 215 211 213 214 214 214 212 213 219 217 217 222 215 223 220 219 224 241 244 251 257 244 242 245 254 264 267 300 317
226 227 226 225 225 225 225 227 221 221 222 220 222 219 220 218 215 215 214 212 216 212 217 217 221 222 226 226 222 227 216 216 227 238 240 258 242 245 239 241 244 244 259 285 303
229 227 228 229 225 223 225 226 224 220 221 221 221 217 221 220 219 218 213 216 217 218 219 225 225 224 232 232 231 236 228 226 232 238 252 254 257 250 244 239 231 233 249 278 296
230 232 231 228 226 223 225 225 225 221 225 225 222 222 223 225 225 225 217 216 215 214 218 218 219 222 232 232 234 254 234 230 235 239 236 242 248 245 242 229 229 237 251 270 291